W5CGC Weather Reports


Display with metric or nautical units.
time (UTC)temp
F
wind
direction
speed
MPH
gust
MPH
rain 1hr
in
rain 24hr
in
rain mn
in
humidity
%
barometer
mb
20260509113038 68 140 0.0 4.0 0.00 0.20 0.00 79 1009.6
20260509111542 68 0 0.0 1.0 0.00 0.20 0.00 79 1009.1
20260509110033 68 0 0.0 1.0 0.00 0.20 0.00 78 1008.8
20260509104536 68 0 0.0 0.0 0.00 0.30 0.00 77 1008.7
20260509103045 68 0 0.0 0.0 0.00 0.30 0.00 76 1008.5
20260509101539 69 0 0.0 0.0 0.00 0.30 0.00 75 1008.4
20260509100045 69 0 0.0 0.0 0.00 0.30 0.00 73 1008.4
20260509094534 70 0 0.0 0.0 0.00 0.40 0.00 72 1008.1
20260509093035 71 0 0.0 1.0 0.00 0.40 0.00 72 1007.8
20260509091538 71 0 0.0 2.0 0.00 0.40 0.00 73 1007.6
20260509090036 72 0 0.0 4.0 0.00 0.40 0.00 73 1007.8
20260509084532 72 153 0.0 19.0 0.00 0.40 0.00 74 1007.6
20260509083041 70 311 3.0 11.0 0.00 0.40 0.00 77 1004.9
20260509081539 70 12 4.0 13.0 0.00 0.40 0.00 78 1005.2
20260509080034 70 359 3.0 11.0 0.00 0.40 0.00 79 1006.8
20260509074541 70 91 2.0 8.0 0.00 0.69 0.00 79 1008.1
20260509073038 70 77 0.0 5.0 0.00 0.69 0.00 80 1009.0
20260509071532 69 68 2.0 4.0 0.00 0.69 0.00 82 1009.2
20260509070034 69 0 0.0 3.0 0.00 0.69 0.00 83 1009.9
20260509064533 68 0 0.0 1.0 0.00 0.69 0.00 83 1010.3
20260509063036 68 0 0.0 1.0 0.00 0.69 0.00 82 1010.4
20260509061550 68 0 0.0 0.0 0.00 0.69 0.00 81 1010.4
20260509060036 68 0 0.0 0.0 0.00 0.69 0.00 80 1010.3
20260509054541 69 0 0.0 1.0 0.00 0.69 0.00 80 1010.2
20260509053051 69 0 0.0 0.0 0.00 0.69 0.00 79 1011.0
20260509051534 70 0 0.0 0.0 0.00 0.69 0.00 79 1011.2
20260509050033 70 0 0.0 1.0 0.00 0.69 0.00 79 1011.6
20260509044538 70 0 0.0 0.0 0.00 0.69 0.69 78 1010.0
20260509043034 71 0 0.0 0.0 0.00 0.69 0.69 77 1010.1
20260509041538 71 0 0.0 2.0 0.00 0.69 0.69 77 1009.6
20260509040039 71 0 0.0 2.0 0.00 0.69 0.69 76 1009.7
20260509034538 72 0 0.0 1.0 0.00 0.69 0.69 76 1009.5
20260509033038 72 172 0.0 0.0 0.00 0.69 0.69 77 1010.1
20260509031537 71 0 0.0 1.0 0.00 0.69 0.69 76 1010.1
20260509030035 71 0 0.0 1.0 0.00 0.69 0.69 76 1009.3
20260509024538 72 0 0.0 0.0 0.00 0.69 0.69 75 1009.0
20260509023039 72 0 0.0 2.0 0.00 0.69 0.69 75 1008.5
20260509021538 72 0 0.0 2.0 0.00 0.69 0.69 75 1008.1
20260509020039 72 0 0.0 1.0 0.00 0.69 0.69 74 1007.9
20260509014535 72 0 0.0 3.0 0.00 0.69 0.69 74 1007.7
20260509013034 72 0 0.0 3.0 0.00 0.69 0.69 73 1008.4
20260509011538 72 0 0.0 1.0 0.00 0.69 0.69 73 1008.6
20260509010038 72 0 0.0 0.0 0.00 0.69 0.69 72 1008.2
20260509004540 73 0 0.0 4.0 0.00 0.69 0.69 71 1008.0
20260509003037 73 37 0.0 4.0 0.00 0.69 0.69 70 1007.7
20260509001532 74 0 0.0 4.0 0.00 0.69 0.69 69 1007.6
20260509000034 74 0 1.0 5.0 0.00 0.69 0.69 69 1007.6
20260508234539 74 65 1.0 6.0 0.00 0.69 0.69 69 1007.9
20260508233037 74 89 1.0 6.0 0.00 0.69 0.69 68 1008.0
20260508231540 75 36 2.0 8.0 0.00 0.69 0.69 67 1008.1
20260508230051 76 96 2.0 7.0 0.00 0.69 0.69 66 1008.1
20260508224537 77 121 1.0 7.0 0.00 0.69 0.69 64 1008.1
20260508223043 77 321 1.0 6.0 0.00 0.69 0.69 63 1008.2
20260508221538 77 72 2.0 12.0 0.00 0.69 0.69 62 1008.3
20260508220039 77 82 1.0 7.0 0.00 0.69 0.69 63 1008.3
20260508214545 76 11 1.0 8.0 0.00 0.69 0.69 64 1008.3
20260508213047 76 91 1.0 6.0 0.00 0.69 0.69 62 1008.5
20260508211541 75 0 1.0 5.0 0.00 0.69 0.69 64 1008.7
20260508210035 76 110 2.0 9.0 0.00 0.69 0.69 63 1008.7
20260508204538 75 190 1.0 5.0 0.00 0.69 0.69 63 1008.6
20260508203037 73 98 1.0 7.0 0.00 0.69 0.69 66 1009.6
20260508201536 73 113 1.0 4.0 0.00 0.69 0.69 65 1010.7
20260508200032 74 41 1.0 5.0 0.00 0.69 0.69 63 1010.7
20260508194532 75 76 1.0 4.0 0.00 0.69 0.69 64 1010.6
20260508193044 75 0 1.0 6.0 0.00 0.69 0.69 64 1010.6
20260508191540 75 39 0.0 7.0 0.00 0.69 0.69 63 1010.7
20260508190036 76 37 1.0 4.0 0.00 0.69 0.69 62 1010.8
20260508184532 76 44 1.0 7.0 0.00 0.69 0.69 61 1010.8
20260508183038 77 85 1.0 8.0 0.00 0.69 0.69 60 1011.0
20260508181540 77 80 0.0 6.0 0.00 0.69 0.69 61 1011.1
20260508180038 77 85 1.0 5.0 0.00 0.69 0.69 62 1011.7
20260508174539 77 113 1.0 6.0 0.00 0.69 0.69 62 1011.8
20260508173035 76 97 0.0 8.0 0.00 0.69 0.69 63 1011.9
20260508171536 74 136 0.0 4.0 0.00 0.69 0.69 66 1012.1
20260508170033 72 184 0.0 5.0 0.00 0.69 0.69 71 1012.2
20260508164533 70 162 1.0 7.0 0.00 0.69 0.69 74 1012.5
20260508163036 68 155 0.0 3.0 0.00 0.69 0.69 82 1013.0
20260508161535 66 70 1.0 6.0 0.00 0.69 0.69 87 1013.3
20260508160036 65 0 0.0 3.0 0.00 0.69 0.69 88 1013.4
20260508154538 64 0 0.0 2.0 0.00 0.69 0.69 88 1013.5
20260508153036 63 0 0.0 1.0 0.00 0.69 0.69 88 1013.6
20260508151533 63 0 0.0 1.0 0.00 0.69 0.69 88 1013.7
20260508150032 63 0 0.0 0.0 0.00 0.69 0.69 89 1014.1
20260508144537 62 0 0.0 1.0 0.00 0.69 0.69 88 1014.0
20260508143034 62 0 0.0 0.0 0.00 0.69 0.69 88 1014.1
20260508141533 61 0 0.0 1.0 0.00 0.69 0.69 88 1014.2
20260508140032 61 0 0.0 2.0 0.00 0.69 0.69 88 1014.2
20260508134535 61 0 0.0 2.0 0.00 0.69 0.69 88 1014.0
20260508133039 61 0 0.0 3.0 0.00 0.69 0.69 88 1013.9
20260508131539 60 0 0.0 2.0 0.04 0.69 0.69 88 1013.9
20260508130036 60 0 0.0 1.0 0.17 0.69 0.69 88 1014.0
20260508124538 60 0 0.0 0.0 0.20 0.69 0.69 88 1014.3
20260508123038 59 0 0.0 1.0 0.20 0.69 0.69 88 1014.0
20260508121542 59 0 0.0 2.0 0.16 0.65 0.65 88 1014.3
20260508120042 60 0 0.0 1.0 0.02 0.51 0.51 88 1014.5
20260508114541 60 0 0.0 2.0 0.00 0.49 0.49 88 1014.0